sat.trackr.live / text

‹ back to catalog

STARLINK-1400

NORAD 45700 · 2020-035AV

PAYLOAD ACTIVE UNKNOWN

§ Identity

Operator
Country
US
Launch date
2020-06-04
Launch site
AFETR
Launch vehicle
Mass (kg)
RCS (m²)

Purposes: comms

External: N2YO · Heavens-Above · Gunter

§ Orbital elements

Epoch: 2026-05-25T03:06:42.636960Z

Period
92.14 min
Inclination
53.0439°
Eccentricity
0.0003617
Mean motion
15.62900321 rev/d
Perigee alt
376.8 km
Apogee alt
381.7 km
Semi-major
6,757.4 km
B*
1.0551e-3
RAAN
12.1734°
Arg perigee
63.6776°
Mean anomaly
296.4608°
Rev number
33,125

§ Raw data

STARLINK-14001 45700U 20035AV  26145.12966015  .00097823  00000+0  10551-2 0  99962 45700  53.0439  12.1734 0003617  63.6776 296.4608 15.62900321331250

JSON: /api/v1/satellites/45700 · /tle

For live sub-satellite position, see the globe view (requires WebGL).

§ Visibility from observer

Set your observer location to see the next 7 days of passes ≥ 10°. The values pass through the URL so the page stays shareable.

No JS? Fill the form by hand. The geolocation button needs JavaScript.